M I D A S
Marine Information and Data Acquisition System
Tripno 1367 of the Zeeleeuw from 2007-11-28 07:47:49 to 2007-11-28 14:43:21
Back to CruiseResearch ActivitiesStationsMapUnderway DataData graphs

EquipmentUnitsComment
TimeDGPSUTC
LatitudeDGPSDM.mWGS84
LongitudeDGPSDM.mWGS84
TemperatureSBE03/SBE38deg celciusITS90
ConductivitySBE21S/mITS90
SalinitySBE21 Practical Salinity Units
ChlorophylAChelsea fluorimeterg/lCalibrated in Aceton
Missing or incorrect values are displayed as -999
Sea surface data collected by the RV Zeeleeuw from 2007-11-28 07:53:35 to 2007-11-28 14:54:06
Time Latitude Longitude Temperature Conductivity Salinity ChlorophylA
2007-11-28 07:54:40 51°13.616 2°56.028 -999 -999 -999 -999
2007-11-28 07:55:40 51°13.656 2°55.9 -999 -999 -999 -999
2007-11-28 07:56:40 51°13.695 2°55.791 -999 -999 -999 -999
2007-11-28 07:57:40 51°13.713 2°55.722 -999 -999 -999 -999
2007-11-28 07:58:40 51°13.717 2°55.7 -999 -999 -999 -999
2007-11-28 07:59:40 51°13.747 2°55.704 -999 -999 -999 -999
2007-11-28 08:00:40 51°13.833 2°55.639 -999 -999 -999 -999
2007-11-28 08:01:40 51°13.951 2°55.546 -999 -999 -999 -999
2007-11-28 08:02:40 51°14.079 2°55.447 -999 -999 -999 -999
2007-11-28 08:03:40 51°14.194 2°55.346 -999 -999 -999 -999
2007-11-28 08:04:39 51°14.285 2°55.215 -999 -999 -999 -999
2007-11-28 08:05:40 51°14.379 2°55.016 -999 -999 -999 -999
2007-11-28 08:06:40 51°14.495 2°54.752 -999 -999 -999 -999
2007-11-28 08:07:39 51°14.655 2°54.547 -999 -999 -999 -999
2007-11-28 08:08:36 51°14.827 2°54.391 -999 -999 -999 -999
2007-11-28 08:09:36 51°15.004 2°54.228 -999 -999 -999 -999
2007-11-28 08:10:37 51°15.174 2°54.036 -999 -999 -999 -999
2007-11-28 08:11:37 51°15.365 2°53.913 -999 -999 -999 -999
2007-11-28 08:12:37 51°15.55 2°53.759 -999 -999 -999 -999
2007-11-28 08:13:37 51°15.74 2°53.623 -999 -999 -999 -999
2007-11-28 08:14:37 51°15.922 2°53.453 -999 -999 -999 -999
2007-11-28 08:15:37 51°16.107 2°53.296 -999 -999 -999 -999
2007-11-28 08:16:37 51°16.293 2°53.137 -999 -999 -999 -999
2007-11-28 08:17:37 51°16.476 2°52.974 -999 -999 -999 -999
2007-11-28 08:18:37 51°16.661 2°52.816 -999 -999 -999 -999
2007-11-28 08:19:37 51°16.851 2°52.686 -999 -999 -999 -999
2007-11-28 08:20:37 51°17.038 2°52.548 -999 -999 -999 -999
2007-11-28 08:21:37 51°17.22 2°52.388 -999 -999 -999 -999
2007-11-28 08:22:37 51°17.405 2°52.233 -999 -999 -999 -999
2007-11-28 08:23:37 51°17.543 2°51.99 -999 -999 -999 -999
2007-11-28 08:24:37 51°17.621 2°51.674 -999 -999 -999 -999
2007-11-28 08:25:37 51°17.709 2°51.365 -999 -999 -999 -999
2007-11-28 08:26:37 51°17.791 2°51.047 -999 -999 -999 -999
2007-11-28 08:27:37 51°17.882 2°50.731 -999 -999 -999 -999
2007-11-28 08:28:37 51°17.979 2°50.42 -999 -999 -999 -999
2007-11-28 08:29:37 51°18.073 2°50.108 -999 -999 -999 -999
2007-11-28 08:30:37 51°18.169 2°49.796 -999 -999 -999 -999
2007-11-28 08:31:37 51°18.249 2°49.472 -999 -999 -999 -999
2007-11-28 08:32:37 51°18.321 2°49.141 -999 -999 -999 -999
2007-11-28 08:33:37 51°18.392 2°48.807 -999 -999 -999 -999
2007-11-28 08:34:37 51°18.468 2°48.473 -999 -999 -999 -999
2007-11-28 08:35:37 51°18.546 2°48.136 -999 -999 -999 -999
2007-11-28 08:36:37 51°18.615 2°47.797 -999 -999 -999 -999
2007-11-28 08:37:37 51°18.681 2°47.461 -999 -999 -999 -999
2007-11-28 08:38:37 51°18.746 2°47.123 -999 -999 -999 -999
2007-11-28 08:39:37 51°18.809 2°46.782 -999 -999 -999 -999
2007-11-28 08:40:37 51°18.875 2°46.442 -999 -999 -999 -999
2007-11-28 08:41:37 51°18.942 2°46.103 -999 -999 -999 -999
2007-11-28 08:42:37 51°19.011 2°45.766 -999 -999 -999 -999
2007-11-28 08:43:37 51°19.078 2°45.429 -999 -999 -999 -999
2007-11-28 08:44:37 51°19.147 2°45.091 -999 -999 -999 -999
2007-11-28 08:45:37 51°19.216 2°44.749 -999 -999 -999 -999
2007-11-28 08:46:37 51°19.287 2°44.406 -999 -999 -999 -999
2007-11-28 08:47:37 51°19.355 2°44.064 -999 -999 -999 -999
2007-11-28 08:48:37 51°19.421 2°43.725 -999 -999 -999 -999
2007-11-28 08:49:37 51°19.49 2°43.386 -999 -999 -999 -999
2007-11-28 08:50:37 51°19.56 2°43.048 -999 -999 -999 -999
2007-11-28 08:51:37 51°19.63 2°42.712 -999 -999 -999 -999
2007-11-28 08:52:37 51°19.698 2°42.376 -999 -999 -999 -999
2007-11-28 08:53:37 51°19.764 2°42.038 -999 -999 -999 -999
2007-11-28 08:54:37 51°19.83 2°41.697 -999 -999 -999 -999
2007-11-28 08:55:37 51°19.898 2°41.355 -999 -999 -999 -999
2007-11-28 08:56:37 51°19.965 2°41.01 -999 -999 -999 -999
2007-11-28 08:57:37 51°20.021 2°40.657 -999 -999 -999 -999
2007-11-28 08:58:37 51°20.074 2°40.304 -999 -999 -999 -999
2007-11-28 08:59:37 51°20.128 2°39.956 -999 -999 -999 -999
2007-11-28 09:00:37 51°20.177 2°39.608 -999 -999 -999 -999
2007-11-28 09:01:37 51°20.228 2°39.259 -999 -999 -999 -999
2007-11-28 09:02:37 51°20.278 2°38.911 -999 -999 -999 -999
2007-11-28 09:03:37 51°20.326 2°38.566 -999 -999 -999 -999
2007-11-28 09:04:37 51°20.377 2°38.22 -999 -999 -999 -999
2007-11-28 09:05:37 51°20.429 2°37.873 -999 -999 -999 -999
2007-11-28 09:06:37 51°20.481 2°37.525 -999 -999 -999 -999
2007-11-28 09:07:37 51°20.534 2°37.177 -999 -999 -999 -999
2007-11-28 09:08:37 51°20.585 2°36.829 -999 -999 -999 -999
2007-11-28 09:09:37 51°20.635 2°36.48 -999 -999 -999 -999
2007-11-28 09:10:37 51°20.684 2°36.129 -999 -999 -999 -999
2007-11-28 09:11:37 51°20.735 2°35.776 -999 -999 -999 -999
2007-11-28 09:12:37 51°20.785 2°35.422 -999 -999 -999 -999
2007-11-28 09:13:37 51°20.836 2°35.069 -999 -999 -999 -999
2007-11-28 09:14:37 51°20.887 2°34.717 -999 -999 -999 -999
2007-11-28 09:15:37 51°20.936 2°34.364 -999 -999 -999 -999
2007-11-28 09:16:37 51°20.985 2°34.011 -999 -999 -999 -999
2007-11-28 09:17:37 51°21.035 2°33.659 -999 -999 -999 -999
2007-11-28 09:18:37 51°21.087 2°33.306 -999 -999 -999 -999
2007-11-28 09:19:37 51°21.148 2°32.96 -999 -999 -999 -999
2007-11-28 09:20:37 51°21.302 2°32.734 -999 -999 -999 -999
2007-11-28 09:21:37 51°21.5 2°32.711 -999 -999 -999 -999
2007-11-28 09:22:37 51°21.699 2°32.731 -999 -999 -999 -999
2007-11-28 09:23:37 51°21.899 2°32.732 -999 -999 -999 -999
2007-11-28 09:24:37 51°22.099 2°32.718 -999 -999 -999 -999
2007-11-28 09:25:37 51°22.3 2°32.706 -999 -999 -999 -999
2007-11-28 09:26:37 51°22.501 2°32.666 -999 -999 -999 -999
2007-11-28 09:27:37 51°22.674 2°32.48 -999 -999 -999 -999
2007-11-28 09:28:37 51°22.717 2°32.138 -999 -999 -999 -999
2007-11-28 09:29:37 51°22.701 2°31.767 -999 -999 -999 -999
2007-11-28 09:30:37 51°22.695 2°31.392 -999 -999 -999 -999
2007-11-28 09:31:37 51°22.694 2°31.016 -999 -999 -999 -999
2007-11-28 09:32:37 51°22.693 2°30.642 -999 -999 -999 -999
2007-11-28 09:33:37 51°22.693 2°30.27 -999 -999 -999 -999
2007-11-28 09:34:37 51°22.695 2°29.895 -999 -999 -999 -999
2007-11-28 09:35:37 51°22.69 2°29.524 -999 -999 -999 -999
2007-11-28 09:36:37 51°22.678 2°29.151 -999 -999 -999 -999
2007-11-28 09:37:37 51°22.668 2°28.781 -999 -999 -999 -999
2007-11-28 09:38:37 51°22.656 2°28.411 -999 -999 -999 -999
2007-11-28 09:39:37 51°22.644 2°28.043 -999 -999 -999 -999
2007-11-28 09:40:37 51°22.631 2°27.672 -999 -999 -999 -999
2007-11-28 09:41:37 51°22.619 2°27.301 -999 -999 -999 -999
2007-11-28 09:42:37 51°22.609 2°26.932 -999 -999 -999 -999
2007-11-28 09:43:37 51°22.596 2°26.56 -999 -999 -999 -999
2007-11-28 09:44:37 51°22.584 2°26.189 -999 -999 -999 -999
2007-11-28 09:45:37 51°22.574 2°25.817 -999 -999 -999 -999
2007-11-28 09:46:37 51°22.628 2°25.465 -999 -999 -999 -999
2007-11-28 09:47:37 51°22.747 2°25.166 -999 -999 -999 -999
2007-11-28 09:48:37 51°22.93 2°25.019 -999 -999 -999 -999
2007-11-28 09:49:37 51°23.126 2°25.041 -999 -999 -999 -999
2007-11-28 09:50:37 51°23.318 2°25.071 -999 -999 -999 -999
2007-11-28 09:51:37 51°23.512 2°25.096 -999 -999 -999 -999
2007-11-28 09:52:37 51°23.708 2°25.112 -999 -999 -999 -999
2007-11-28 09:53:37 51°23.899 2°25.123 -999 -999 -999 -999
2007-11-28 09:54:37 51°24.087 2°25.126 -999 -999 -999 -999
2007-11-28 09:55:37 51°24.274 2°25.133 -999 -999 -999 -999
2007-11-28 09:56:37 51°24.464 2°25.135 -999 -999 -999 -999
2007-11-28 09:57:37 51°24.652 2°25.135 -999 -999 -999 -999
2007-11-28 09:58:37 51°24.84 2°25.14 -999 -999 -999 -999
2007-11-28 09:59:37 51°25.03 2°25.143 -999 -999 -999 -999
2007-11-28 10:00:37 51°25.218 2°25.154 -999 -999 -999 -999
2007-11-28 10:01:37 51°25.404 2°25.159 -999 -999 -999 -999
2007-11-28 10:02:37 51°25.589 2°25.168 -999 -999 -999 -999
2007-11-28 10:03:37 51°25.779 2°25.173 -999 -999 -999 -999
2007-11-28 10:04:37 51°25.965 2°25.185 -999 -999 -999 -999
2007-11-28 10:05:37 51°26.153 2°25.201 -999 -999 -999 -999
2007-11-28 10:06:37 51°26.34 2°25.219 -999 -999 -999 -999
2007-11-28 10:07:37 51°26.525 2°25.234 -999 -999 -999 -999
2007-11-28 10:08:37 51°26.711 2°25.249 -999 -999 -999 -999
2007-11-28 10:09:37 51°26.893 2°25.267 -999 -999 -999 -999
2007-11-28 10:10:37 51°27.078 2°25.288 -999 -999 -999 -999
2007-11-28 10:11:37 51°27.263 2°25.299 -999 -999 -999 -999
2007-11-28 10:12:37 51°27.444 2°25.316 -999 -999 -999 -999
2007-11-28 10:13:37 51°27.626 2°25.331 -999 -999 -999 -999
2007-11-28 10:14:37 51°27.807 2°25.351 -999 -999 -999 -999
2007-11-28 10:15:37 51°27.989 2°25.365 -999 -999 -999 -999
2007-11-28 10:16:37 51°28.173 2°25.38 -999 -999 -999 -999
2007-11-28 10:17:37 51°28.356 2°25.394 -999 -999 -999 -999
2007-11-28 10:18:37 51°28.539 2°25.418 -999 -999 -999 -999
2007-11-28 10:19:37 51°28.722 2°25.451 -999 -999 -999 -999
2007-11-28 10:20:37 51°28.904 2°25.476 -999 -999 -999 -999
2007-11-28 10:21:37 51°29.084 2°25.501 -999 -999 -999 -999
2007-11-28 10:22:37 51°29.265 2°25.498 -999 -999 -999 -999
2007-11-28 10:23:37 51°29.45 2°25.494 -999 -999 -999 -999
2007-11-28 10:24:37 51°29.634 2°25.499 -999 -999 -999 -999
2007-11-28 10:25:37 51°29.817 2°25.503 -999 -999 -999 -999
2007-11-28 10:26:37 51°30 2°25.497 -999 -999 -999 -999
2007-11-28 10:27:37 51°30.183 2°25.488 -999 -999 -999 -999
2007-11-28 10:28:37 51°30.366 2°25.479 -999 -999 -999 -999
2007-11-28 10:29:37 51°30.548 2°25.471 -999 -999 -999 -999
2007-11-28 10:30:37 51°30.729 2°25.461 -999 -999 -999 -999
2007-11-28 10:31:37 51°30.902 2°25.498 -999 -999 -999 -999
2007-11-28 10:32:37 51°31.071 2°25.59 -999 -999 -999 -999
2007-11-28 10:33:37 51°31.236 2°25.696 -999 -999 -999 -999
2007-11-28 10:34:37 51°31.386 2°25.845 -999 -999 -999 -999
2007-11-28 10:35:37 51°31.539 2°25.988 -999 -999 -999 -999
2007-11-28 10:36:37 51°31.695 2°26.127 -999 -999 -999 -999
2007-11-28 10:37:37 51°31.847 2°26.272 -999 -999 -999 -999
2007-11-28 10:38:37 51°31.999 2°26.418 -999 -999 -999 -999
2007-11-28 10:39:37 51°32.154 2°26.554 -999 -999 -999 -999
2007-11-28 10:40:37 51°32.309 2°26.7 -999 -999 -999 -999
2007-11-28 10:41:37 51°32.466 2°26.841 -999 -999 -999 -999
2007-11-28 10:42:37 51°32.625 2°26.976 -999 -999 -999 -999
2007-11-28 10:43:37 51°32.779 2°27.116 -999 -999 -999 -999
2007-11-28 10:44:37 51°32.94 2°27.261 -999 -999 -999 -999
2007-11-28 10:45:37 51°33.098 2°27.405 -999 -999 -999 -999
2007-11-28 10:46:37 51°33.252 2°27.545 -999 -999 -999 -999
2007-11-28 10:47:37 51°33.41 2°27.68 -999 -999 -999 -999
2007-11-28 10:48:37 51°33.571 2°27.816 -999 -999 -999 -999
2007-11-28 10:49:37 51°33.732 2°27.952 -999 -999 -999 -999
2007-11-28 10:50:37 51°33.89 2°28.096 -999 -999 -999 -999
2007-11-28 10:51:37 51°34.046 2°28.24 -999 -999 -999 -999
2007-11-28 10:52:37 51°34.202 2°28.385 -999 -999 -999 -999
2007-11-28 10:53:37 51°34.36 2°28.523 -999 -999 -999 -999
2007-11-28 10:54:37 51°34.514 2°28.676 -999 -999 -999 -999
2007-11-28 10:55:37 51°34.664 2°28.835 -999 -999 -999 -999
2007-11-28 10:56:37 51°34.812 2°28.992 -999 -999 -999 -999
2007-11-28 10:57:37 51°34.968 2°29.144 -999 -999 -999 -999
2007-11-28 10:58:37 51°35.121 2°29.303 -999 -999 -999 -999
2007-11-28 10:59:37 51°35.274 2°29.472 -999 -999 -999 -999
2007-11-28 11:00:37 51°35.433 2°29.622 -999 -999 -999 -999
2007-11-28 11:01:37 51°35.588 2°29.768 -999 -999 -999 -999
2007-11-28 11:02:37 51°35.748 2°29.914 -999 -999 -999 -999
2007-11-28 11:03:37 51°35.9 2°30.065 -999 -999 -999 -999
2007-11-28 11:04:37 51°36.057 2°30.214 -999 -999 -999 -999
2007-11-28 11:05:37 51°36.213 2°30.355 -999 -999 -999 -999
2007-11-28 11:06:37 51°36.366 2°30.506 -999 -999 -999 -999
2007-11-28 11:07:37 51°36.522 2°30.653 -999 -999 -999 -999
2007-11-28 11:08:37 51°36.676 2°30.807 -999 -999 -999 -999
2007-11-28 11:09:37 51°36.826 2°30.963 -999 -999 -999 -999
2007-11-28 11:10:37 51°36.98 2°31.119 -999 -999 -999 -999
2007-11-28 11:11:37 51°37.137 2°31.269 -999 -999 -999 -999
2007-11-28 11:12:37 51°37.293 2°31.424 -999 -999 -999 -999
2007-11-28 11:13:37 51°37.443 2°31.589 -999 -999 -999 -999
2007-11-28 11:14:37 51°37.598 2°31.746 -999 -999 -999 -999
2007-11-28 11:15:37 51°37.748 2°31.911 -999 -999 -999 -999
2007-11-28 11:16:37 51°37.906 2°32.062 -999 -999 -999 -999
2007-11-28 11:17:37 51°38.06 2°32.215 -999 -999 -999 -999
2007-11-28 11:18:37 51°38.216 2°32.369 -999 -999 -999 -999
2007-11-28 11:19:37 51°38.369 2°32.531 -999 -999 -999 -999
2007-11-28 11:20:37 51°38.523 2°32.695 -999 -999 -999 -999
2007-11-28 11:21:37 51°38.678 2°32.857 -999 -999 -999 -999
2007-11-28 11:22:37 51°38.835 2°33.023 -999 -999 -999 -999
2007-11-28 11:23:37 51°38.995 2°33.185 -999 -999 -999 -999
2007-11-28 11:24:37 51°39.155 2°33.349 -999 -999 -999 -999
2007-11-28 11:25:37 51°39.315 2°33.511 -999 -999 -999 -999
2007-11-28 11:26:37 51°39.478 2°33.666 -999 -999 -999 -999
2007-11-28 11:27:37 51°39.641 2°33.82 -999 -999 -999 -999
2007-11-28 11:28:37 51°39.807 2°33.973 -999 -999 -999 -999
2007-11-28 11:29:37 51°39.972 2°34.131 -999 -999 -999 -999
2007-11-28 11:30:37 51°40.13 2°34.292 -999 -999 -999 -999
2007-11-28 11:31:37 51°40.292 2°34.449 -999 -999 -999 -999
2007-11-28 11:32:37 51°40.454 2°34.604 -999 -999 -999 -999
2007-11-28 11:33:37 51°40.614 2°34.765 -999 -999 -999 -999
2007-11-28 11:34:37 51°40.775 2°34.926 -999 -999 -999 -999
2007-11-28 11:35:37 51°40.939 2°35.079 -999 -999 -999 -999
2007-11-28 11:36:37 51°41.096 2°35.248 -999 -999 -999 -999
2007-11-28 11:37:37 51°41.216 2°35.466 -999 -999 -999 -999
2007-11-28 11:38:37 51°41.256 2°35.767 -999 -999 -999 -999
2007-11-28 11:39:37 51°41.244 2°36.075 -999 -999 -999 -999
2007-11-28 11:40:37 51°41.161 2°36.366 -999 -999 -999 -999
2007-11-28 11:41:37 51°41.076 2°36.658 -999 -999 -999 -999
2007-11-28 11:42:37 51°40.995 2°36.959 -999 -999 -999 -999
2007-11-28 11:43:37 51°40.905 2°37.255 -999 -999 -999 -999
2007-11-28 11:44:37 51°40.802 2°37.542 -999 -999 -999 -999
2007-11-28 11:45:37 51°40.706 2°37.837 -999 -999 -999 -999
2007-11-28 11:46:37 51°40.609 2°38.13 -999 -999 -999 -999
2007-11-28 11:47:37 51°40.518 2°38.428 -999 -999 -999 -999
2007-11-28 11:48:37 51°40.422 2°38.724 -999 -999 -999 -999
2007-11-28 11:49:37 51°40.326 2°39.018 -999 -999 -999 -999
2007-11-28 11:50:37 51°40.234 2°39.313 -999 -999 -999 -999
2007-11-28 11:51:37 51°40.141 2°39.605 -999 -999 -999 -999
2007-11-28 11:52:37 51°40.052 2°39.899 -999 -999 -999 -999
2007-11-28 11:53:37 51°39.963 2°40.19 -999 -999 -999 -999
2007-11-28 11:54:37 51°39.873 2°40.482 -999 -999 -999 -999
2007-11-28 11:55:37 51°39.777 2°40.77 -999 -999 -999 -999
2007-11-28 11:56:37 51°39.682 2°41.063 -999 -999 -999 -999
2007-11-28 11:57:37 51°39.587 2°41.354 -999 -999 -999 -999
2007-11-28 11:58:37 51°39.438 2°41.581 -999 -999 -999 -999
2007-11-28 11:59:37 51°39.23 2°41.633 -999 -999 -999 -999
2007-11-28 12:00:37 51°39.038 2°41.487 -999 -999 -999 -999
2007-11-28 12:01:37 51°38.945 2°41.187 -999 -999 -999 -999
2007-11-28 12:02:37 51°38.89 2°40.856 -999 -999 -999 -999
2007-11-28 12:03:37 51°38.823 2°40.552 -999 -999 -999 -999
2007-11-28 12:04:37 51°38.755 2°40.265 -999 -999 -999 -999
2007-11-28 12:05:37 51°38.676 2°39.949 -999 -999 -999 -999
2007-11-28 12:06:37 51°38.593 2°39.636 -999 -999 -999 -999
2007-11-28 12:07:37 51°38.512 2°39.326 -999 -999 -999 -999
2007-11-28 12:08:38 51°38.435 2°39.017 -999 -999 -999 -999
2007-11-28 12:09:37 51°38.356 2°38.711 -999 -999 -999 -999
2007-11-28 12:10:37 51°38.281 2°38.396 -999 -999 -999 -999
2007-11-28 12:11:37 51°38.206 2°38.083 -999 -999 -999 -999
2007-11-28 12:12:37 51°38.134 2°37.774 -999 -999 -999 -999
2007-11-28 12:13:37 51°38.062 2°37.463 -999 -999 -999 -999
2007-11-28 12:14:37 51°37.994 2°37.15 -999 -999 -999 -999
2007-11-28 12:15:37 51°37.926 2°36.84 -999 -999 -999 -999
2007-11-28 12:16:37 51°37.855 2°36.524 -999 -999 -999 -999
2007-11-28 12:17:37 51°37.789 2°36.218 -999 -999 -999 -999
2007-11-28 12:18:37 51°37.725 2°35.916 -999 -999 -999 -999
2007-11-28 12:19:37 51°37.656 2°35.609 -999 -999 -999 -999
2007-11-28 12:20:37 51°37.582 2°35.29 -999 -999 -999 -999
2007-11-28 12:21:37 51°37.517 2°34.986 -999 -999 -999 -999
2007-11-28 12:22:39 51°37.453 2°34.679 -999 -999 -999 -999
2007-11-28 12:23:37 51°37.389 2°34.379 -999 -999 -999 -999
2007-11-28 12:24:37 51°37.318 2°34.077 -999 -999 -999 -999
2007-11-28 12:25:37 51°37.163 2°33.881 -999 -999 -999 -999
2007-11-28 12:26:37 51°36.96 2°33.787 -999 -999 -999 -999
2007-11-28 12:27:37 51°36.759 2°33.715 -999 -999 -999 -999
2007-11-28 12:28:38 51°36.56 2°33.638 -999 -999 -999 -999
2007-11-28 12:29:37 51°36.365 2°33.552 -999 -999 -999 -999
2007-11-28 12:30:37 51°36.165 2°33.463 -999 -999 -999 -999
2007-11-28 12:31:37 51°35.962 2°33.369 -999 -999 -999 -999
2007-11-28 12:32:37 51°35.762 2°33.277 -999 -999 -999 -999
2007-11-28 12:33:37 51°35.568 2°33.19 -999 -999 -999 -999
2007-11-28 12:34:37 51°35.368 2°33.101 -999 -999 -999 -999
2007-11-28 12:35:37 51°35.168 2°33.013 -999 -999 -999 -999
2007-11-28 12:36:37 51°34.971 2°32.93 -999 -999 -999 -999
2007-11-28 12:37:37 51°34.777 2°32.85 -999 -999 -999 -999
2007-11-28 12:38:37 51°34.582 2°32.77 -999 -999 -999 -999
2007-11-28 12:39:37 51°34.383 2°32.686 -999 -999 -999 -999
2007-11-28 12:40:37 51°34.191 2°32.609 -999 -999 -999 -999
2007-11-28 12:41:37 51°33.995 2°32.523 -999 -999 -999 -999
2007-11-28 12:42:37 51°33.796 2°32.436 -999 -999 -999 -999
2007-11-28 12:43:37 51°33.599 2°32.354 -999 -999 -999 -999
2007-11-28 12:44:37 51°33.401 2°32.269 -999 -999 -999 -999
2007-11-28 12:45:37 51°33.196 2°32.237 -999 -999 -999 -999
2007-11-28 12:46:37 51°32.991 2°32.228 -999 -999 -999 -999
2007-11-28 12:47:37 51°32.788 2°32.22 -999 -999 -999 -999
2007-11-28 12:48:37 51°32.583 2°32.207 -999 -999 -999 -999
2007-11-28 12:49:37 51°32.379 2°32.194 -999 -999 -999 -999
2007-11-28 12:50:37 51°32.175 2°32.178 -999 -999 -999 -999
2007-11-28 12:51:37 51°31.973 2°32.166 -999 -999 -999 -999
2007-11-28 12:52:37 51°31.77 2°32.154 -999 -999 -999 -999
2007-11-28 12:53:37 51°31.566 2°32.159 -999 -999 -999 -999
2007-11-28 12:54:37 51°31.366 2°32.209 -999 -999 -999 -999
2007-11-28 12:55:37 51°31.167 2°32.261 -999 -999 -999 -999
2007-11-28 12:56:37 51°30.969 2°32.318 -999 -999 -999 -999
2007-11-28 12:57:37 51°30.774 2°32.403 -999 -999 -999 -999
2007-11-28 12:58:37 51°30.58 2°32.511 -999 -999 -999 -999
2007-11-28 12:59:37 51°30.388 2°32.635 -999 -999 -999 -999
2007-11-28 13:00:37 51°30.2 2°32.778 -999 -999 -999 -999
2007-11-28 13:01:37 51°30.014 2°32.932 -999 -999 -999 -999
2007-11-28 13:02:37 51°29.843 2°33.127 -999 -999 -999 -999
2007-11-28 13:03:37 51°29.73 2°33.427 -999 -999 -999 -999
2007-11-28 13:04:37 51°29.624 2°33.744 -999 -999 -999 -999
2007-11-28 13:05:37 51°29.51 2°34.051 -999 -999 -999 -999
2007-11-28 13:06:37 51°29.373 2°34.318 -999 -999 -999 -999
2007-11-28 13:07:37 51°29.228 2°34.57 -999 -999 -999 -999
2007-11-28 13:08:37 51°29.084 2°34.825 -999 -999 -999 -999
2007-11-28 13:09:37 51°28.942 2°35.083 -999 -999 -999 -999
2007-11-28 13:10:37 51°28.803 2°35.343 -999 -999 -999 -999
2007-11-28 13:11:37 51°28.664 2°35.605 -999 -999 -999 -999
2007-11-28 13:12:37 51°28.523 2°35.868 -999 -999 -999 -999
2007-11-28 13:13:37 51°28.383 2°36.132 -999 -999 -999 -999
2007-11-28 13:14:37 51°28.242 2°36.396 -999 -999 -999 -999
2007-11-28 13:15:37 51°28.1 2°36.656 -999 -999 -999 -999
2007-11-28 13:16:37 51°27.96 2°36.912 -999 -999 -999 -999
2007-11-28 13:17:37 51°27.819 2°37.165 -999 -999 -999 -999
2007-11-28 13:18:37 51°27.676 2°37.413 -999 -999 -999 -999
2007-11-28 13:19:37 51°27.538 2°37.668 -999 -999 -999 -999
2007-11-28 13:20:37 51°27.399 2°37.924 -999 -999 -999 -999
2007-11-28 13:21:37 51°27.257 2°38.182 -999 -999 -999 -999
2007-11-28 13:22:37 51°27.117 2°38.442 -999 -999 -999 -999
2007-11-28 13:23:37 51°26.977 2°38.701 -999 -999 -999 -999
2007-11-28 13:24:37 51°26.836 2°38.958 -999 -999 -999 -999
2007-11-28 13:25:37 51°26.694 2°39.214 -999 -999 -999 -999
2007-11-28 13:26:37 51°26.553 2°39.469 -999 -999 -999 -999
2007-11-28 13:27:37 51°26.414 2°39.726 -999 -999 -999 -999
2007-11-28 13:28:37 51°26.277 2°39.987 -999 -999 -999 -999
2007-11-28 13:29:37 51°26.125 2°40.222 -999 -999 -999 -999
2007-11-28 13:30:37 51°25.972 2°40.454 -999 -999 -999 -999
2007-11-28 13:31:37 51°25.818 2°40.682 -999 -999 -999 -999
2007-11-28 13:32:37 51°25.667 2°40.916 -999 -999 -999 -999
2007-11-28 13:33:37 51°25.518 2°41.147 -999 -999 -999 -999
2007-11-28 13:34:37 51°25.367 2°41.377 -999 -999 -999 -999
2007-11-28 13:35:37 51°25.215 2°41.607 -999 -999 -999 -999
2007-11-28 13:36:37 51°25.046 2°41.784 -999 -999 -999 -999
2007-11-28 13:37:37 51°24.868 2°41.928 -999 -999 -999 -999
2007-11-28 13:38:37 51°24.691 2°42.075 -999 -999 -999 -999
2007-11-28 13:39:37 51°24.514 2°42.221 -999 -999 -999 -999
2007-11-28 13:40:37 51°24.348 2°42.401 -999 -999 -999 -999
2007-11-28 13:41:37 51°24.188 2°42.607 -999 -999 -999 -999
2007-11-28 13:42:37 51°24.024 2°42.808 -999 -999 -999 -999
2007-11-28 13:43:37 51°23.843 2°42.954 -999 -999 -999 -999
2007-11-28 13:44:37 51°23.658 2°43.089 -999 -999 -999 -999
2007-11-28 13:45:37 51°23.474 2°43.226 -999 -999 -999 -999
2007-11-28 13:46:37 51°23.293 2°43.365 -999 -999 -999 -999
2007-11-28 13:47:37 51°23.112 2°43.497 -999 -999 -999 -999
2007-11-28 13:48:37 51°22.938 2°43.652 -999 -999 -999 -999
2007-11-28 13:49:37 51°22.784 2°43.871 -999 -999 -999 -999
2007-11-28 13:50:37 51°22.631 2°44.095 -999 -999 -999 -999
2007-11-28 13:51:37 51°22.478 2°44.322 -999 -999 -999 -999
2007-11-28 13:52:37 51°22.327 2°44.551 -999 -999 -999 -999
2007-11-28 13:53:37 51°22.173 2°44.778 -999 -999 -999 -999
2007-11-28 13:54:37 51°22.02 2°45.004 -999 -999 -999 -999
2007-11-28 13:55:37 51°21.866 2°45.231 -999 -999 -999 -999
2007-11-28 13:56:37 51°21.711 2°45.458 -999 -999 -999 -999
2007-11-28 13:57:37 51°21.557 2°45.686 -999 -999 -999 -999
2007-11-28 13:58:37 51°21.402 2°45.917 -999 -999 -999 -999
2007-11-28 13:59:37 51°21.251 2°46.155 -999 -999 -999 -999
2007-11-28 14:00:37 51°21.106 2°46.404 -999 -999 -999 -999
2007-11-28 14:01:37 51°20.959 2°46.65 -999 -999 -999 -999
2007-11-28 14:02:37 51°20.811 2°46.897 -999 -999 -999 -999
2007-11-28 14:03:37 51°20.663 2°47.146 -999 -999 -999 -999
2007-11-28 14:04:37 51°20.512 2°47.393 -999 -999 -999 -999
2007-11-28 14:05:37 51°20.361 2°47.639 -999 -999 -999 -999
2007-11-28 14:06:37 51°20.212 2°47.886 -999 -999 -999 -999
2007-11-28 14:07:37 51°20.067 2°48.135 -999 -999 -999 -999
2007-11-28 14:08:37 51°19.925 2°48.379 -999 -999 -999 -999
2007-11-28 14:09:37 51°19.786 2°48.624 -999 -999 -999 -999
2007-11-28 14:10:37 51°19.643 2°48.863 -999 -999 -999 -999
2007-11-28 14:11:37 51°19.497 2°49.102 -999 -999 -999 -999
2007-11-28 14:12:37 51°19.353 2°49.345 -999 -999 -999 -999
2007-11-28 14:13:37 51°19.205 2°49.589 -999 -999 -999 -999
2007-11-28 14:14:37 51°19.053 2°49.829 -999 -999 -999 -999
2007-11-28 14:15:37 51°18.904 2°50.077 -999 -999 -999 -999
2007-11-28 14:16:37 51°18.754 2°50.319 -999 -999 -999 -999
2007-11-28 14:17:37 51°18.606 2°50.562 -999 -999 -999 -999
2007-11-28 14:18:37 51°18.463 2°50.809 -999 -999 -999 -999
2007-11-28 14:19:37 51°18.318 2°51.05 -999 -999 -999 -999
2007-11-28 14:20:37 51°18.174 2°51.288 -999 -999 -999 -999
2007-11-28 14:21:37 51°18.02 2°51.507 -999 -999 -999 -999
2007-11-28 14:22:37 51°17.85 2°51.677 -999 -999 -999 -999
2007-11-28 14:23:37 51°17.678 2°51.842 -999 -999 -999 -999
2007-11-28 14:24:37 51°17.506 2°52.007 -999 -999 -999 -999
2007-11-28 14:25:37 51°17.334 2°52.174 -999 -999 -999 -999
2007-11-28 14:26:37 51°17.162 2°52.345 -999 -999 -999 -999
2007-11-28 14:27:37 51°16.984 2°52.498 -999 -999 -999 -999
2007-11-28 14:28:37 51°16.805 2°52.641 -999 -999 -999 -999
2007-11-28 14:29:37 51°16.623 2°52.787 -999 -999 -999 -999
2007-11-28 14:30:37 51°16.444 2°52.943 -999 -999 -999 -999
2007-11-28 14:31:37 51°16.269 2°53.106 -999 -999 -999 -999
2007-11-28 14:32:37 51°16.097 2°53.264 -999 -999 -999 -999
2007-11-28 14:33:37 51°15.923 2°53.417 -999 -999 -999 -999
2007-11-28 14:34:37 51°15.75 2°53.57 -999 -999 -999 -999
2007-11-28 14:35:37 51°15.574 2°53.72 -999 -999 -999 -999
2007-11-28 14:36:37 51°15.399 2°53.871 -999 -999 -999 -999
2007-11-28 14:37:37 51°15.225 2°54.014 -999 -999 -999 -999
2007-11-28 14:38:37 51°15.049 2°54.152 -999 -999 -999 -999
2007-11-28 14:39:37 51°14.877 2°54.31 -999 -999 -999 -999
2007-11-28 14:40:37 51°14.711 2°54.49 -999 -999 -999 -999
2007-11-28 14:41:37 51°14.562 2°54.714 -999 -999 -999 -999
2007-11-28 14:42:37 51°14.425 2°54.967 -999 -999 -999 -999
2007-11-28 14:43:37 51°14.287 2°55.207 -999 -999 -999 -999
2007-11-28 14:44:41 51°14.153 2°55.392 -999 -999 -999 -999
2007-11-28 14:45:40 51°14.052 2°55.466 -999 -999 -999 -999
2007-11-28 14:46:39 51°13.96 2°55.534 -999 -999 -999 -999
2007-11-28 14:47:37 51°13.869 2°55.603 -999 -999 -999 -999
2007-11-28 14:48:41 51°13.775 2°55.693 -999 -999 -999 -999
2007-11-28 14:49:41 51°13.704 2°55.809 -999 -999 -999 -999
2007-11-28 14:50:41 51°13.648 2°55.923 -999 -999 -999 -999
2007-11-28 14:51:41 51°13.615 2°56.01 -999 -999 -999 -999
2007-11-28 14:52:41 51°13.601 2°56.08 -999 -999 -999 -999
2007-11-28 14:53:41 51°13.597 2°56.093 -999 -999 -999 -999